User: anonymous   Login
Location: McDonald Observatory
(30.6717°N, 104.0221°W)
Time: 16:36:59
(UTC-06:00)
Language:

Cosmos 1484 Rocket - Orbit

View from above orbital plane
View from above orbital plane
View from above satellite
View from above satellite

Ground track
Ground track

The orbit data is extracted from the following two-line orbital elements,

1 14208U 83075B   16039.84657160  .00001536  00000-0  97429-4 0  9994
2 14208  97.3650  64.3267 0041163  37.6152 322.7944 15.09671968772902
Epoch (UTC): 08 February 2016 20:19:03
Eccentricity: 0.0041163
inclination: 97.3650°
perigee height: 509 km
apogee height: 565 km
right ascension of ascending node: 64.3267°
argument of perigee: 37.6152°
revolutions per day: 15.09671968
mean anomaly at epoch: 322.7944°
orbit number at epoch: 77290

The dashed part of the orbit path shows where the satellite is in the earth's shadow,  

DLR